User: anonymous   Login
Location: Unspecified
(43.0000°N, 0.0000°E)
Time: 18:57:28
(UTC+00:00)
Language:

PicSat - Orbit

View from above orbital plane
View from above orbital plane
View from above satellite
View from above satellite

Ground track
Ground track

The orbit data is extracted from the following two-line orbital elements,

1 43131U 18004W   21163.47034061  .00003044  00000-0  11632-3 0  9990
2 43131  97.4113 239.4244 0007600 209.7858 150.2949 15.27372236190007
Epoch (UTC): 12 June 2021 11:17:17
Eccentricity: 0.0007600
inclination: 97.4113°
perigee height: 478 km
apogee height: 489 km
right ascension of ascending node: 239.4244°
argument of perigee: 209.7858°
revolutions per day: 15.27372236
mean anomaly at epoch: 150.2949°
orbit number at epoch: 19000

The dashed part of the orbit path shows where the satellite is in the earth's shadow,  

DLR